{"data":{"norad_id":65434,"intl_designator":"2025-194A","name":"STARLINK-35142","alt_names":[],"object_type":"PAYLOAD","status":"ACTIVE","operator":null,"country":"US","launch_date":"2025-09-03","launch_site_code":"AFWTR","launch_vehicle":null,"mission":null,"orbit_class":"UNKNOWN","rcs_meters":null,"size_class":null,"mass_kg":null,"dimensions":null,"purposes":["comms"],"wikipedia_slug":null,"has_3d_model":false,"image_url":null,"decayed_at":null,"tle_current":{"epoch":"2026-09-20T13:19:22.662624Z","epoch_age_seconds":110182,"freshness":"FRESH","line1":"1 65434U 25194A   26263.55512341  .00012147  00000+0  37791-3 0  9992","line2":"2 65434  97.2864 113.1439 0001408  68.6742 291.4651 15.33449692 59073","mean_motion":15.33449692,"eccentricity":0.0001408,"inclination_deg":97.2864,"raan_deg":113.1439,"arg_perigee_deg":68.6742,"mean_anomaly_deg":291.4651,"bstar":0.00037791,"rev_number":5907,"period_min":93.905917325653,"perigee_km":464.56562621984,"apogee_km":466.49280262582,"semimajor_km":6843.6662144228,"source":"CELESTRAK","updated_at":"2026-09-21T09:00:35.608186Z"}}}